| time (UTC) | temp C | wind direction | speed KPH | gust KPH | rain 1hr cm | rain 24hr cm | rain mn cm | humidity % | barometer mb |
| 20260506230209 | 7 | 215 | 6.4 | 0.0 | 0.00 | 0.00 | 0.00 | 89 | 1008.7 |
| 20260506223209 | 8 | 215 | 6.4 | 0.0 | 0.00 | 0.00 | 0.00 | 89 | 1008.6 |
| 20260506220209 | 8 | 215 | 3.2 | 0.0 | 0.00 | 0.00 | 0.71 | 89 | 1008.3 |
| 20260506213209 | 8 | 215 | 4.8 | 0.0 | 0.00 | 0.00 | 0.71 | 89 | 1008.3 |
| 20260506210210 | 8 | 216 | 9.7 | 0.0 | 0.00 | 0.00 | 0.71 | 88 | 1008.3 |
| 20260506203210 | 8 | 218 | 9.7 | 0.0 | 0.00 | 0.00 | 0.71 | 87 | 1008.1 |
| 20260506200210 | 9 | 209 | 11.3 | 0.0 | 0.00 | 0.00 | 0.71 | 87 | 1007.9 |
| 20260506193215 | 8 | 207 | 16.1 | 0.0 | 0.00 | 0.00 | 0.71 | 88 | 1007.6 |
| 20260506190211 | 8 | 216 | 16.1 | 0.0 | 0.00 | 0.00 | 0.71 | 87 | 1007.1 |
| 20260506183209 | 9 | 213 | 14.5 | 0.0 | 0.00 | 0.00 | 0.71 | 86 | 1006.8 |
| 20260506180216 | 10 | 214 | 20.9 | 0.0 | 0.00 | 0.00 | 0.71 | 83 | 1006.6 |
| 20260506173210 | 11 | 192 | 17.7 | 0.0 | 0.00 | 0.00 | 0.71 | 83 | 1006.4 |
| 20260506170215 | 10 | 221 | 8.0 | 0.0 | 0.00 | 0.00 | 0.71 | 88 | 1006.0 |
| 20260506163210 | 10 | 221 | 9.7 | 0.0 | 0.00 | 0.00 | 0.71 | 89 | 1005.8 |
| 20260506160210 | 9 | 221 | 16.1 | 0.0 | 0.00 | 0.00 | 0.71 | 89 | 1005.6 |
| 20260506153210 | 9 | 219 | 19.3 | 0.0 | 0.00 | 0.00 | 0.64 | 89 | 1005.6 |
| 20260506150210 | 10 | 242 | 32.2 | 0.0 | 0.00 | 0.00 | 0.38 | 87 | 1005.3 |
| 20260506143210 | 11 | 205 | 30.6 | 0.0 | 0.00 | 0.00 | 0.25 | 86 | 1004.6 |
| 20260506140210 | 15 | 245 | 16.1 | 0.0 | 0.00 | 0.00 | 0.00 | 74 | 1003.6 |
| 20260506133211 | 15 | 245 | 8.0 | 0.0 | 0.00 | 0.00 | 0.00 | 70 | 1003.5 |
| 20260506130211 | 15 | 245 | 0.0 | 0.0 | 0.00 | 0.00 | 0.00 | 65 | 1003.4 |
| 20260506123210 | 16 | 245 | 3.2 | 0.0 | 0.00 | 0.00 | 0.00 | 65 | 1003.4 |
| 20260506120210 | 16 | 245 | 4.8 | 0.0 | 0.00 | 0.00 | 0.00 | 64 | 1003.1 |
| 20260506113217 | 16 | 245 | 3.2 | 0.0 | 0.00 | 0.00 | 0.00 | 65 | 1003.3 |
| 20260506110210 | 15 | 245 | 0.0 | 0.0 | 0.00 | 0.00 | 0.00 | 68 | 1003.6 |
| 20260506100213 | 14 | 245 | 0.0 | 0.0 | 0.00 | 0.00 | 0.00 | 69 | 1003.7 |
| 20260506093211 | 14 | 245 | 0.0 | 0.0 | 0.00 | 0.00 | 0.00 | 68 | 1004.1 |
| 20260506090211 | 14 | 245 | 0.0 | 0.0 | 0.00 | 0.00 | 0.00 | 69 | 1004.1 |
| 20260506083211 | 13 | 245 | 0.0 | 0.0 | 0.00 | 0.00 | 0.00 | 80 | 1003.9 |
| 20260506080212 | 12 | 245 | 0.0 | 0.0 | 0.00 | 0.00 | 0.00 | 83 | 1004.0 |
| 20260506073211 | 11 | 245 | 0.0 | 0.0 | 0.00 | 0.00 | 0.00 | 86 | 1004.2 |
| 20260506070212 | 11 | 245 | 4.8 | 0.0 | 0.00 | 0.00 | 0.00 | 87 | 1004.3 |
| 20260506060210 | 9 | 245 | 0.0 | 0.0 | 0.00 | 0.00 | 0.00 | 93 | 1004.1 |
| 20260506050211 | 6 | 245 | 0.0 | 0.0 | 0.00 | 0.00 | 0.00 | 93 | 1004.6 |
| 20260506043211 | 6 | 245 | 0.0 | 0.0 | 0.00 | 0.00 | 0.00 | 92 | 1004.7 |
| 20260506040211 | 6 | 245 | 0.0 | 0.0 | 0.00 | 0.00 | 0.00 | 91 | 1005.0 |
| 20260506033211 | 6 | 245 | 0.0 | 0.0 | 0.00 | 0.00 | 0.00 | 91 | 1005.2 |
| 20260506030212 | 7 | 245 | 0.0 | 0.0 | 0.00 | 0.00 | 0.00 | 91 | 1005.5 |
| 20260506023211 | 7 | 245 | 0.0 | 0.0 | 0.00 | 0.00 | 0.00 | 91 | 1005.8 |
| 20260506020212 | 8 | 245 | 0.0 | 0.0 | 0.00 | 0.00 | 0.00 | 90 | 1005.9 |
| 20260506013211 | 8 | 245 | 0.0 | 0.0 | 0.00 | 0.00 | 0.00 | 90 | 1006.1 |
| 20260506010213 | 8 | 245 | 0.0 | 0.0 | 0.00 | 0.00 | 0.00 | 90 | 1006.4 |
| 20260506003209 | 9 | 245 | 0.0 | 0.0 | 0.00 | 0.00 | 0.00 | 87 | 1006.2 |
| 20260506000211 | 10 | 245 | 0.0 | 0.0 | 0.00 | 0.00 | 0.00 | 89 | 1006.4 |
| 20260505233209 | 9 | 245 | 3.2 | 0.0 | 0.00 | 0.00 | 0.00 | 90 | 1006.7 |